Location: Dodge City Community College Allied Health Building
(37.7772°N, 100.0364°W)
Time: 15:12:24
(UTC+00:00)

FengYun 1-2 T - Pass Details

Date: 08 December 2021
Orbit: 846 x 881 km, 98.7° (Epoch: 19 January)

Event Time Altitude Azimuth Distance (km) Brightness Sun altitude
Rises 13:07:26 0° 9° (N) 3,416 7.2 -7.2°
Reaches altitude 10° 13:09:49 10° 7° (N) 2,476 6.5 -6.8°
Maximum altitude 13:15:14 65° 287° (WNW) 931 4.2 -5.8°
Drops below altitude 10° 13:20:38 10° 206° (SSW) 2,467 6.6 -4.8°
Sets 13:23:01 0° 204° (SSW) 3,402 7.4 -4.4°
